Tracking 19908 objects as of 19-Oct-2019
HD Live streaming from Space Station
objects crossing your sky now

DELTA 1 DEB

Track DELTA 1 DEB now!
10-day predictions


NORAD ID: 37639
Int'l Code: 1978-026JA
Perigee: 873.8 km
Apogee: 1,046.9 km
Inclination: 98.8 °
Period: 104.1 minutes
Semi major axis: 7331 km
RCS: 0.0118 m2 (small)
Launch date: March 5, 1978
Source: United States (US)
Launch site: AIR FORCE WESTERN TEST RANGE (AFWTR)

Note: This is SATELLITE DEBRIS
aabbcc
Your satellite tracking list
Your tracking list is empty




NASA's NSSDC Master Catalog

Two Line Element Set (TLE):
1 37639U 78026JA  19289.02292692  .00000055  00000-0  81301-4 0  9999
2 37639  98.7562 310.9092 0118066 142.2833 246.8791 13.83004813935506
Source of the keplerian elements: AFSPC